Zurück zum Katalog

COSMOS 797

AktivMilitärLEO
NORAD 8613·PAYLOAD·🇷🇺 Russia

Gestartet Jan 28, 1976 von Plesetsk Cosmodrome

Loading…

Nächste Überflüge (nächste 24 Stunden)

TLE

AktuellSource: Space-Track

Epoche: Sep 14, 2026, 15:30 UTC

1 08613U 76008G   26257.64613488 -.00000007  00000-0  63418-4 0  9995
2 08613  74.0555 308.1573 0032443 235.1168 296.0226 12.40689677293107

Verfolge COSMOS 797 in Echtzeit mit AllMySat

Download on the App Store